Regional Weather Roundup
Issued by NWS State College, PA

Home | Current Version | Previous Version | Text Only | Print | Product List | Glossary On
Versions: 1 2 3 4 5 6 7 8 9 10 11 12 13 14 15 16 17 18 19 20 21 22 23 24 25 26 27 28 29 30 31 32 33 34 35 36 37 38 39 40 41 42 43 44 45 46 47 48 49 50
000
ASUS41 KCTP 301710
RWRCTP

REGIONAL WEATHER ROUNDUP
NATIONAL WEATHER SERVICE STATE COLLEGE PA
100 PM EDT SUN APR 30 2017

Note: "fair" indicates few or no clouds below 12,000 feet with no
significant weather and/or obstructions to visibility.

* = STATION THAT DOES NOT REPORT PRECIPITATION /E.G. RAIN...SNOW...ETC/
    THUNDER OR FOG.

PAZ002>004-007>009-013>016-020>023-029>032-301800-
WESTERN PENNSYLVANIA

CITY           SKY/WX    TMP DP  RH WIND       PRES   REMARKS
ERIE           PTSUNNY   51  43  74 NE13      30.00S
MEADVILLE      MOSUNNY   78  66  66 SW9G20    29.99F
FRANKLIN*      CLOUDY    75  63  64 SW14      30.03F
NEW CASTLE     PTSUNNY   77  67  71 S5        30.00F
BEAVER COUNTY  NOT AVBL
BUTLER*        CLOUDY    81  64  57 S9        30.02F
PITTSBURGH INT CLOUDY    82  61  48 SW13G23   30.01F
PITTSBURGH     MOSUNNY   81  61  50 S15       30.01F
INDIANA*       PTSUNNY   81  66  61 W10       30.06F
LATROBE        MOSUNNY   82  64  54 SW13      30.03F
WASHINGTON CO* CLOUDY    82  63  51 SW10G21   30.04F
$$

PAZ004>006-010>012-017>019-024>028-033>037-041-042-045-046-049>053-301800-
CENTRAL PENNSYLVANIA

CITY           SKY/WX    TMP DP  RH WIND       PRES   REMARKS
BRADFORD       MOSUNNY   72  60  66 S8        30.05F
DUBOIS         MOSUNNY   76  63  64 VRB5      30.04F
CLEARFIELD     MOSUNNY   76  61  59 SE6       30.06F
JOHNSTOWN      SUNNY     75  64  68 S12       30.09F
ALTOONA        CLOUDY    72  61  68 CALM      30.10F
STATE COLLEGE  CLOUDY    68  57  68 SW8       30.11F
WILLIAMSPORT   CLOUDY    63  45  51 E8        30.12F
SELINSGROVE    CLOUDY    65  49  56 CALM      30.12F
FT INDIANTOWN  CLOUDY    68  52  56 NE5       30.13F
CAPITAL CITY   CLOUDY    73  56  54 E8        30.11F
HARRISBURG     CLOUDY    73  58  59 SE10      30.10F
YORK           CLOUDY    73  63  70 SE10      30.11F
$$

PAZ038>040-043-044-047-048-054-055-060>062-067>071-301800-
EASTERN PENNSYLVANIA

CITY           SKY/WX    TMP DP  RH WIND       PRES   REMARKS
SCRANTON       CLOUDY    63  43  48 CALM      30.15F
MOUNT POCONO   CLOUDY    56  42  59 SE15      30.19F
ALLENTOWN      CLOUDY    67  45  45 SE9       30.17F
QUAKERTOWN*    MOSUNNY   66  46  48 E10       30.19F
READING        CLOUDY    70  55  59 SE12G23   30.13F
LANCASTER      CLOUDY    71  60  68 SE12      30.13F
COATESVILLE    CLOUDY    70  55  60 E10       30.17S
POTTSTOWN      CLOUDY    66  46  48 E8        30.18F
BLUE BELL      PTSUNNY   66  45  45 E12       30.19F
DOYLESTOWN     CLOUDY    65  44  46 CALM      30.18F
WILLOW GROVE   NOT AVBL
NORTH PHILA    CLOUDY    68  44  42 E15       30.20F
PHILADELPHIA   PTSUNNY   70  46  42 E12       30.17F
$$



USA.gov is the U.S. government's official web portal to all federal, state and local government web resources and services.